Starlink 30960

operational
NORAD ID: 58456 Int'l Des: 2023-183 Owner: SPXS Country: US Constellation: starlink
LEOCIRCULAR

Über Starlink 30960

Beschreibung wird geladen...

Live-Position

3D-Globus wird geladen...

Nächste Überflüge

Höhenverlauf

Altitude vs Time

uPlot chart will show altitude changes over time

Zweizeiliger Elementsatz

1 58456U 23183V 25258.60941200 .00001660 00000-0 69849-4 0 9992
2 58456 42.9996 229.9381 0000984 278.3880 81.6860 15.27577977100906
Epoch: 15. Sept. 2025 • Age: 13 hours

Aktueller Status

Höhe 484.9 km
Geschwindigkeit 7.62 km/s
Subsatellitenpunkt -11.11°S, 2.98°E
Startdatum 28. Nov. 2023
Alter 1.7 years
Typ internet

Technische Details

Klassifizierung Payload
Masse 730.00 kg
Trockenmasse 700.00 kg
Gesamtmasse 730.00 kg
Länge 0.30 m
Durchmesser 4.10 m
Spannweite 29.00 m
Form Box + pan
Hersteller SPXS
Bus-Typ Starlink V2M
Phasenstatus In Orbit
Besitzer/Staat SPXS/US

Große Konstellationen

Loading constellations...